DateTimeUTC,F1_A11,F1_S11,BsB_S11,BsG_S11,BsR_S11,BbsB_S11,BbsG_S11,BbsR_S11,BaB_A11,BaG_A11,BaR_A11,Tu_S11,T_S11,Uu_S11,U_S11,P_S11,T1_A11
2021-05-31T00:00:00Z,00000200,20000000,,,,,,,-000.44,-000.53,0000.10,17.7,24.9,02.3,01.5,0658.2,31.0
2021-05-31T00:01:00Z,00000200,20000000,,,,,,,-000.00,0000.23,-000.22,17.7,24.9,02.3,01.5,0658.2,31.0
2021-05-31T00:02:00Z,00000200,20000000,,,,,,,-000.19,-000.28,0000.10,17.7,24.9,02.0,01.3,0658.2,31.0
2021-05-31T00:03:00Z,00000200,60000000,,,,,,,-000.28,-000.11,-000.42,17.7,24.9,02.0,01.3,0658.2,31.0
2021-05-31T00:04:00Z,00000200,41000000,0000.13,0000.06,0000.25,0000.42,-000.02,-000.06,0000.56,0000.10,0000.21,17.8,24.6,01.9,01.3,0659.1,31.0
2021-05-31T00:05:00Z,00000200,01000000,0000.46,0000.26,-000.03,0000.18,0000.10,0000.36,-000.33,0000.11,0000.07,17.9,24.6,01.9,01.2,0659.2,31.0
2021-05-31T00:06:00Z,00000200,01000000,0000.17,0000.22,0000.12,0000.18,0000.02,0000.33,0000.39,0000.21,0000.39,17.9,24.6,01.8,01.2,0659.2,31.0
2021-05-31T00:07:00Z,00000200,00000000,0000.80,0000.24,0000.30,0000.00,0000.04,0000.34,0000.01,-000.01,0000.04,17.9,24.5,01.9,01.2,0659.2,31.0
2021-05-31T00:08:00Z,00000200,01000000,0000.19,0000.31,-000.03,0000.35,0000.19,0000.19,0000.22,0000.15,0000.01,17.9,24.5,01.9,01.3,0659.2,31.0
2021-05-31T00:09:00Z,00000200,01000000,0000.60,0000.40,-000.11,-000.20,0000.03,0000.10,0000.02,0000.09,0000.06,17.9,24.5,01.9,01.2,0659.2,31.0
2021-05-31T00:10:00Z,00000200,01000000,0000.30,0000.40,0000.02,0000.37,0000.11,0000.15,0000.34,-000.08,0000.14,17.9,24.5,01.8,01.2,0659.2,31.0
2021-05-31T00:11:00Z,00000200,01000000,0000.10,-000.04,0000.16,-000.16,0000.14,0000.05,-000.04,0000.49,0000.28,17.9,24.5,01.8,01.2,0659.2,31.0
2021-05-31T00:12:00Z,00000200,01000000,0000.38,0000.46,0000.01,0000.02,0000.21,0000.14,0000.40,0000.01,0000.04,17.8,24.5,01.8,01.2,0659.2,31.0
2021-05-31T00:13:00Z,00000200,01000000,0000.58,-000.03,0000.13,0000.24,0000.20,0000.34,0000.00,-000.05,-000.17,17.9,24.5,01.9,01.3,0659.2,31.0
2021-05-31T00:14:00Z,00000200,01000000,0000.87,0000.24,0000.06,0000.65,0000.05,0000.11,0000.26,0000.22,-000.16,17.8,24.5,01.9,01.2,0659.2,31.0
2021-05-31T00:15:00Z,00000200,01000000,0001.07,0000.17,0000.13,0000.41,0000.25,0000.26,0000.16,0000.36,0000.63,17.9,24.5,01.8,01.2,0659.2,31.0
2021-05-31T00:16:00Z,00000200,01000000,0000.46,0000.21,0000.23,-000.18,0000.11,0000.28,0000.54,0000.55,0000.13,17.8,24.5,02.0,01.3,0659.1,31.0
2021-05-31T00:17:00Z,00000200,00000000,0000.40,0000.08,-000.06,0000.01,0000.10,0000.15,0000.37,0000.72,0000.53,17.9,24.5,02.2,01.5,0659.1,31.0
2021-05-31T00:18:00Z,00000200,00000000,0000.49,0000.14,0000.05,0000.17,0000.10,0000.21,0000.08,-000.26,-000.21,17.8,24.5,02.4,01.6,0659.1,31.0
2021-05-31T00:19:00Z,00000200,00000000,0000.25,-000.06,-000.01,0000.49,0000.14,0000.08,0000.11,-000.06,0000.29,17.9,24.5,02.3,01.5,0659.1,31.0
2021-05-31T00:20:00Z,00000200,00000000,-000.29,0000.41,-000.05,0000.44,0000.12,-000.12,-000.33,-000.35,-000.17,17.8,24.5,02.2,01.5,0659.1,31.0
2021-05-31T00:21:00Z,00000200,00000000,0000.47,0000.39,0000.11,-000.01,0000.07,0000.07,0000.03,0000.30,-000.25,17.9,24.5,02.1,01.4,0659.1,31.0
2021-05-31T00:22:00Z,00000200,01000000,0000.38,0000.33,0000.32,0000.05,0000.31,0000.52,-000.19,-000.38,0000.40,17.8,24.5,01.9,01.3,0659.1,31.0
2021-05-31T00:23:00Z,00000200,00000000,0000.29,0000.47,0000.12,-000.20,-000.14,0000.23,0000.25,0000.45,-000.17,17.8,24.5,02.1,01.4,0659.1,31.0
2021-05-31T00:24:00Z,00000200,01000000,0000.18,0000.31,0000.18,-000.41,0000.14,0000.42,0000.23,0000.09,0000.26,17.8,24.5,02.1,01.4,0659.1,31.0
2021-05-31T00:25:00Z,00000200,00000000,0000.05,0000.06,-000.32,0000.05,0000.24,0000.01,-000.20,0000.08,-000.15,17.9,24.4,02.2,01.4,0659.1,31.0
2021-05-31T00:26:00Z,00000200,00000000,0000.49,0000.51,-000.01,0000.18,-000.08,0000.05,0000.48,0000.18,0000.12,17.8,24.5,02.1,01.4,0659.1,31.0
2021-05-31T00:27:00Z,00000200,00000000,-000.36,0000.17,-000.02,-000.02,0000.08,0000.16,-000.01,0000.05,-000.02,17.8,24.5,02.2,01.5,0659.1,31.0
2021-05-31T00:28:00Z,00000200,00000000,0000.35,0000.21,0000.11,-000.18,0000.21,0000.04,0000.60,0000.44,0000.38,17.8,24.4,02.2,01.4,0659.0,31.0
2021-05-31T00:29:00Z,00000200,00000000,-000.15,0000.35,-000.04,0000.06,-000.07,0000.10,-000.21,-000.14,-000.13,17.8,24.4,02.4,01.6,0659.0,31.0
2021-05-31T00:30:00Z,00000200,00000000,0000.13,0000.02,-000.07,-000.37,-000.06,0000.18,0000.61,0000.58,0000.30,17.9,24.4,02.4,01.6,0659.0,31.0
2021-05-31T00:31:00Z,00000200,00000000,0000.30,0000.12,0000.15,0000.41,0000.00,0000.35,-000.10,-000.17,0000.30,17.8,24.4,02.5,01.7,0659.0,31.0
2021-05-31T00:32:00Z,00000200,00000000,0000.46,-000.00,-000.08,0000.06,0000.07,0000.06,0000.04,0000.31,0000.20,17.8,24.4,02.5,01.7,0659.0,31.0
2021-05-31T00:33:00Z,00000200,00000000,0000.01,-000.06,0000.12,0000.03,0000.10,0000.06,-000.28,-000.80,-000.60,17.8,24.4,02.5,01.7,0659.1,31.0
2021-05-31T00:34:00Z,00000200,00000000,0000.17,-000.00,-000.02,-000.13,-000.00,0000.15,0000.12,0000.66,0000.46,17.8,24.4,02.4,01.6,0659.1,31.0
2021-05-31T00:35:00Z,00000200,00000000,0000.54,-000.06,0000.25,0000.31,0000.04,0000.30,-000.19,-000.63,-000.43,17.8,24.4,02.3,01.5,0659.1,31.0
2021-05-31T00:36:00Z,00000200,00000000,-000.27,0000.07,0000.16,-000.11,0000.01,0000.41,-000.13,0000.16,0000.21,17.8,24.4,02.2,01.5,0659.1,31.0
2021-05-31T00:37:00Z,00000200,00000000,0000.20,-000.02,-000.02,-000.02,0000.28,0000.15,0000.22,-000.09,0000.19,17.8,24.4,02.2,01.5,0659.1,31.0
2021-05-31T00:38:00Z,00000200,00000000,0000.26,0000.10,0000.02,0000.29,0000.25,0000.20,0000.18,-000.02,-000.13,17.8,24.4,02.3,01.5,0659.1,31.0
2021-05-31T00:39:00Z,00000200,00000000,0000.21,0000.05,0000.32,-000.19,-000.10,0000.31,-000.41,0000.04,-000.04,17.8,24.4,02.1,01.4,0659.1,31.0
2021-05-31T00:40:00Z,00000200,00000000,0000.41,0000.12,-000.14,0000.36,-000.13,0000.15,0000.33,0000.21,-000.21,17.8,24.4,02.2,01.5,0659.2,31.0
2021-05-31T00:41:00Z,00000200,00000000,0000.29,0000.07,-000.06,0000.14,0000.06,0000.19,0000.37,0000.24,-000.01,17.8,24.4,02.2,01.5,0659.2,31.0
2021-05-31T00:42:00Z,00000200,00000000,0001.06,0000.24,0000.23,-000.83,0000.17,0000.02,-000.10,-000.07,0000.21,17.8,24.4,02.3,01.5,0659.2,31.0
2021-05-31T00:43:00Z,00000200,01000000,0001.17,0000.11,0000.06,-000.09,0000.05,0000.27,-000.12,-000.17,0000.00,17.8,24.4,02.1,01.4,0659.2,31.0
2021-05-31T00:44:00Z,00000200,01000000,0001.20,0000.40,-000.02,0000.11,0000.21,0000.11,-000.18,-000.13,-000.11,17.8,24.4,01.9,01.3,0659.2,31.0
2021-05-31T00:45:00Z,00000200,01000000,0000.03,0000.21,0000.01,0000.46,0000.31,0000.22,0000.18,-000.30,-000.16,17.8,24.4,01.9,01.3,0659.2,31.0
2021-05-31T00:46:00Z,00000200,01000000,0000.51,0000.09,0000.31,0000.33,0000.13,0000.43,-000.03,0000.34,0000.01,17.8,24.4,01.9,01.3,0659.2,31.0
2021-05-31T00:47:00Z,00000200,01000000,0000.59,0000.14,0000.05,-000.47,0000.27,0000.23,0000.26,0000.49,0000.51,17.8,24.4,01.9,01.2,0659.2,31.0
2021-05-31T00:48:00Z,00000200,01000000,0000.35,0000.44,0000.15,-000.04,0000.23,0000.37,0000.17,0000.12,0000.23,17.8,24.4,01.9,01.2,0659.2,31.0
2021-05-31T00:49:00Z,00000200,00000000,-000.06,0000.05,-000.12,-000.17,0000.07,0000.47,0000.11,-000.04,0000.11,17.8,24.4,02.0,01.3,0659.2,31.0
2021-05-31T00:50:00Z,00000200,00000000,0000.44,-000.00,0000.19,0000.15,0000.21,0000.15,0000.07,0000.05,-000.04,17.8,24.4,01.9,01.3,0659.2,31.0
2021-05-31T00:51:00Z,00000200,00000000,0000.88,0000.44,0000.18,0000.16,0000.13,0000.13,0000.10,-000.05,-000.15,17.8,24.4,01.9,01.3,0659.2,31.0
2021-05-31T00:52:00Z,00000200,01000000,0000.07,0000.23,0000.30,0000.10,0000.47,0000.26,-000.41,-000.01,0000.02,17.8,24.4,01.8,01.2,0659.2,31.0
2021-05-31T00:53:00Z,00000200,01000000,0000.73,0000.44,0000.33,0000.25,0000.21,0000.32,-000.24,-000.59,-000.43,17.8,24.4,01.6,01.1,0659.2,31.0
2021-05-31T00:54:00Z,00000200,01000000,0001.20,0000.52,0000.10,0000.18,0000.08,0000.16,-000.29,0000.07,-000.11,17.8,24.4,01.4,00.9,0659.2,31.0
2021-05-31T00:55:00Z,00000200,01000000,0000.74,0000.32,0000.35,-000.09,0000.21,0000.56,0000.25,0000.08,-000.08,17.8,24.4,01.3,00.9,0659.2,31.0
2021-05-31T00:56:00Z,00000200,01000000,0001.31,0000.37,0000.20,0000.04,-000.01,0000.33,-000.25,-000.07,0000.14,17.8,24.4,01.1,00.8,0659.2,31.0
2021-05-31T00:57:00Z,00000200,41000000,,,,,,,0000.88,0000.87,0000.83,17.8,24.4,01.2,00.8,0659.2,31.0
2021-05-31T00:58:00Z,00000200,61000000,,,,,,,-000.11,-000.39,-000.17,17.5,24.5,01.5,01.0,0658.2,31.0
2021-05-31T00:59:00Z,00000200,21000000,,,,,,,-000.46,-000.24,-000.73,17.5,24.6,01.2,00.8,0658.2,31.0
